Wind_Speed
15 15 15 15 15 15 15 15 15 15 15 15 15 15 14 14 14 13 13 12 12 12 11 11 10 9 8 8 7 7 7 7 6 6 6 6 6 5 6 6 6 6 6
17 17 17 17 16 16 16 16 16 16 16 16 17 16 16 16 15 14 14 14 13 13 13 12 11 11 10 9 9 8 8 8 7 7 7 7 7 7 7 7 7 7 8
18 18 19 19 18 18 17 17 17 18 18 18 18 18 18 17 17 16 16 15 15 14 14 14 13 13 12 11 10 10 10 9 9 9 9 9 9 9 9 9 9 9 9
20 20 20 20 20 20 19 19 19 19 19 19 19 19 19 19 19 18 17 17 16 16 16 15 15 15 14 13 12 12 12 11 11 11 11 11 11 11 10 10 10 10 10
23 22 22 22 21 21 21 21 21 21 21 21 21 21 20 20 20 19 19 19 18 17 17 17 16 16 15 15 14 14 14 13 13 13 12 12 12 12 12 12 11 11 11
24 24 24 24 24 23 22 22 23 23 22 22 22 22 22 22 21 21 20 20 19 19 18 18 17 17 16 16 16 15 15 15 14 14 14 13 12 12 12 12 12 12 12
26 26 26 26 26 25 24 24 24 24 24 24 24 23 23 23 23 22 21 21 20 20 19 19 19 18 18 17 17 16 16 16 15 15 15 14 13 13 13 13 13 13 13
27 27 28 27 27 26 26 25 25 25 25 25 25 25 24 24 23 23 22 22 21 20 21 20 20 20 19 19 18 18 17 17 17 17 16 16 15 15 15 15 15 15 15
27 27 27 28 27 27 27 26 26 26 26 26 27 26 26 25 25 24 24 23 23 22 22 21 20 21 21 20 20 19 19 19 19 18 18 17 17 17 17 17 17 17 16
27 27 27 27 28 28 28 27 27 27 28 28 28 28 28 27 27 26 26 25 24 24 24 23 23 22 22 22 22 21 20 20 20 20 20 19 19 19 19 18 18 18 18
26 28 28 27 27 28 28 28 29 29 29 29 29 29 29 29 29 28 28 27 27 26 26 26 25 24 23 23 23 23 22 22 21 21 21 21 21 21 20 20 20 20 20
26 27 28 29 28 29 29 30 30 30 30 30 31 31 31 31 30 30 30 29 29 28 28 28 27 26 25 25 25 24 24 23 23 23 23 22 22 22 22 22 22 22 22
27 27 28 29 29 30 30 31 31 31 32 32 32 32 32 32 32 32 32 32 31 31 30 30 29 28 28 27 27 26 25 25 25 24 24 23 23 23 23 23 23 23 23
26 27 29 29 30 30 31 32 33 33 34 34 34 34 34 34 34 34 34 34 34 34 33 32 31 30 30 29 28 28 28 27 26 26 26 25 25 25 24 24 24 24 24
28 28 29 30 30 31 31 32 33 34 35 35 35 36 36 37 36 36 36 36 36 36 35 34 33 33 32 31 30 29 30 29 28 28 27 27 27 27 26 26 25 25 26
29 29 30 30 31 31 32 33 34 35 36 37 37 37 37 38 38 38 38 38 38 38 37 37 36 35 34 33 33 32 31 31 31 30 29 29 29 29 28 27 27 27 27
30 30 32 32 32 32 33 34 34 36 37 37 38 39 39 39 40 40 40 40 40 40 39 39 39 38 37 36 34 33 33 33 32 32 31 30 30 30 30 29 29 28 28
31 32 33 33 33 33 34 35 35 36 37 38 38 39 40 40 40 41 41 41 41 41 41 41 41 40 38 38 36 35 35 34 34 33 33 33 32 32 31 31 30 30 30
32 33 34 34 34 34 34 35 36 36 37 37 38 38 39 40 40 40 41 41 41 41 41 42 42 42 40 39 38 37 37 36 36 35 35 35 34 33 33 32 32 32 32
33 33 34 35 35 35 35 36 37 36 37 37 37 38 39 39 40 40 40 40 40 41 41 42 42 42 42 41 39 39 38 38 37 37 37 36 36 35 34 35 35 35 34
32 32 33 33 34 35 35 36 37 37 37 37 37 37 38 38 39 39 39 39 40 40 41 41 42 42 42 41 40 40 40 39 38 38 39 38 37 37 37 37 37 37 37
32 32 32 33 34 34 35 35 35 35 35 35 36 37 38 39 39 38 39 39 40 41 41 41 42 42 43 42 42 41 40 39 39 40 40 40 39 38 38 38 38 38 39
32 32 33 33 33 34 35 34 34 35 34 35 36 35 37 38 38 38 39 39 40 41 41 41 42 43 43 43 43 43 42 42 41 40 41 42 41 41 41 40 40 40 41
32 33 32 31 32 33 34 34 33 33 34 35 35 36 36 36 37 38 39 40 40 40 41 41 41 42 43 43 43 43 44 43 43 42 42 43 43 43 43 44 43 43 44
31 32 32 31 32 32 33 33 34 32 33 33 34 36 36 36 37 38 39 39 40 41 41 41 41 41 43 43 43 43 44 43 44 45 44 45 45 45 46 46 46 46 46
31 31 32 31 31 31 32 32 33 32 32 32 34 35 36 36 36 37 38 40 41 41 41 41 41 42 42 42 42 43 44 44 45 46 47 47 47 47 48 48 49 49 48
Wind_Direction
246 245 246 246 245 245 244 243 243 242 243 243 242 242 241 241 241 244 245 242 242 240 240 240 241 242 243 244 245 249 252 255 258 263 271 274 276 281 283 286 288 290 294
246 246 248 248 247 247 246 244 242 242 243 243 243 243 243 242 243 244 246 245 244 242 241 242 243 244 245 247 248 252 255 257 261 265 269 270 273 277 280 283 285 287 290
248 247 247 248 248 247 247 245 243 242 243 244 245 245 245 245 244 246 246 246 246 245 244 244 245 245 246 248 250 253 257 260 263 266 268 270 273 276 278 281 283 286 288
251 248 247 248 248 248 247 246 243 243 244 245 246 246 246 246 246 247 248 248 248 247 247 246 247 247 247 250 253 256 259 261 264 267 268 271 274 276 278 280 282 282 283
251 248 247 247 248 248 247 246 244 245 246 246 246 247 246 247 248 248 249 250 250 250 249 248 248 248 248 250 253 256 260 263 266 267 268 270 273 276 278 280 280 280 280
251 248 247 247 247 247 247 247 245 245 246 247 247 247 247 247 249 249 250 250 250 250 250 248 248 249 250 251 253 256 260 264 266 267 268 270 273 275 277 278 278 279 278
251 248 246 246 247 246 246 247 246 245 246 247 246 246 246 247 248 250 250 248 248 249 250 249 248 249 251 252 254 256 259 262 266 267 268 269 272 275 276 276 277 277 278
250 249 246 245 245 245 245 246 246 246 246 247 246 245 245 246 246 248 251 248 248 249 250 250 250 251 253 254 255 257 260 262 265 267 267 268 270 273 275 275 276 277 278
248 248 246 245 245 245 245 245 246 246 246 247 247 245 245 245 246 247 250 251 250 250 250 250 252 253 254 255 256 257 259 262 264 266 267 267 269 272 274 274 274 275 277
247 246 246 246 245 245 245 245 246 246 247 247 247 246 246 246 246 247 249 250 250 251 251 251 251 254 255 256 256 258 259 262 264 266 267 267 268 270 272 273 274 274 275
248 246 246 247 247 247 246 246 247 247 247 247 247 247 247 247 248 248 249 248 250 252 251 250 251 253 256 257 259 259 260 261 263 265 266 268 269 269 271 272 273 274 274
247 248 247 247 247 248 248 247 247 247 248 248 248 248 247 248 249 249 249 248 250 251 251 251 251 253 255 257 259 260 259 261 262 264 266 267 269 269 271 272 273 274 274
245 248 249 247 246 248 248 247 247 248 249 249 249 248 248 249 249 250 250 250 250 250 251 252 252 252 254 257 259 259 259 260 261 263 265 266 268 269 270 271 273 274 275
246 250 250 247 247 249 250 248 248 249 250 249 249 249 249 249 250 250 251 251 250 250 250 251 251 252 255 257 259 260 259 260 261 262 263 265 267 269 270 272 274 275 275
248 251 250 249 250 251 252 251 249 249 250 250 250 250 250 250 250 251 251 251 250 250 250 251 251 253 255 255 257 259 259 259 261 261 263 264 266 268 270 272 274 275 275
250 251 251 251 252 252 254 254 253 251 250 250 250 251 252 251 250 251 251 251 250 250 250 251 252 253 255 256 256 258 259 259 261 262 264 265 267 268 270 271 274 275 275
252 251 252 253 254 254 255 256 255 253 252 252 252 252 253 252 252 252 251 251 250 250 250 251 252 253 254 255 255 257 259 258 260 262 264 266 267 268 269 271 272 274 275
254 252 251 253 254 255 256 256 257 256 254 254 254 254 253 253 252 252 251 250 249 250 250 251 252 253 254 255 255 256 258 258 260 261 263 266 267 268 269 270 271 272 274
255 255 252 253 254 256 257 257 258 258 255 254 254 253 253 253 252 252 252 250 249 249 250 251 252 253 253 253 254 256 258 258 259 261 263 265 267 268 269 269 270 271 272
257 258 255 255 255 257 259 259 257 258 255 253 253 253 253 253 252 251 251 250 249 248 249 251 252 253 254 254 255 256 258 258 259 260 263 265 265 267 268 269 269 270 271
258 258 256 255 256 258 260 260 258 258 256 254 254 254 253 252 251 251 250 249 249 249 249 251 252 253 253 254 255 255 256 257 259 261 263 265 265 266 267 269 269 270 271
260 259 259 260 259 261 260 261 260 261 259 256 255 253 253 252 251 250 250 250 250 249 249 250 252 252 252 253 254 255 256 258 261 264 264 265 265 266 267 269 270 271 271
261 261 261 261 259 261 261 261 259 260 259 257 255 255 254 252 251 251 251 251 250 249 250 251 252 252 252 253 254 256 257 258 261 264 264 265 265 266 268 269 270 271 271
262 259 260 262 260 261 261 260 258 260 258 257 256 255 255 254 253 253 253 252 251 249 250 251 251 252 252 252 255 257 258 260 261 263 264 265 266 266 268 269 270 271 272
263 261 260 261 262 262 262 259 258 260 258 256 256 256 255 254 255 255 254 252 250 249 249 249 250 251 251 252 254 256 259 261 263 264 264 264 265 267 268 270 271 272 273
262 262 261 261 261 261 261 260 259 260 259 258 259 259 257 256 256 255 254 251 248 248 248 249 250 251 252 253 255 258 260 262 264 265 266 265 265 267 269 270 272 273 274
Height
5850 5851 5852 5853 5854 5854 5855 5856 5857 5858 5859 5860 5861 5862 5863 5864 5864 5865 5865 5866 5866 5867 5867 5868 5868 5868 5868 5868 5869 5869 5869 5869 5869 5869 5868 5868 5868 5867 5867 5866 5866 5865 5865
5847 5848 5849 5850 5851 5852 5853 5854 5855 5855 5856 5857 5858 5859 5860 5861 5862 5863 5863 5864 5865 5865 5866 5866 5866 5867 5867 5867 5867 5867 5868 5867 5867 5867 5867 5867 5866 5866 5866 5865 5865 5864 5864
5843 5844 5846 5847 5848 5849 5850 5851 5852 5853 5854 5855 5856 5857 5858 5859 5860 5861 5861 5862 5863 5863 5864 5864 5865 5865 5865 5866 5866 5866 5866 5866 5866 5866 5865 5865 5865 5864 5864 5864 5863 5863 5862
5839 5840 5842 5843 5844 5845 5846 5847 5849 5850 5851 5852 5853 5854 5855 5856 5857 5858 5859 5860 5860 5861 5861 5862 5862 5863 5863 5864 5864 5864 5864 5864 5864 5864 5864 5863 5863 5863 5862 5862 5861 5861 5860
5835 5836 5837 5839 5840 5841 5842 5844 5845 5846 5847 5849 5850 5851 5852 5853 5854 5855 5856 5857 5857 5858 5859 5859 5860 5860 5861 5862 5862 5862 5862 5862 5862 5862 5862 5861 5861 5861 5860 5860 5859 5859 5858
5829 5831 5832 5834 5835 5837 5838 5839 5841 5842 5843 5845 5846 5847 5848 5849 5850 5851 5852 5853 5854 5855 5856 5856 5857 5858 5858 5859 5859 5860 5860 5859 5859 5859 5859 5859 5859 5858 5858 5857 5857 5856 5856
5823 5825 5827 5829 5830 5832 5833 5835 5836 5838 5839 5840 5842 5843 5844 5845 5846 5847 5848 5849 5850 5851 5852 5853 5854 5854 5855 5856 5856 5856 5857 5857 5856 5856 5856 5856 5856 5856 5855 5855 5854 5854 5853
5818 5819 5822 5823 5825 5826 5828 5830 5831 5833 5834 5836 5837 5838 5840 5841 5842 5843 5844 5845 5847 5848 5849 5849 5850 5851 5852 5852 5853 5853 5853 5854 5853 5853 5853 5853 5853 5853 5852 5852 5851 5851 5850
5811 5813 5815 5817 5819 5821 5823 5825 5826 5828 5829 5831 5832 5833 5835 5836 5838 5839 5840 5841 5842 5844 5845 5845 5846 5847 5848 5848 5849 5849 5850 5850 5850 5850 5850 5850 5850 5849 5849 5849 5848 5848 5847
5805 5807 5809 5811 5813 5815 5817 5819 5821 5822 5824 5825 5827 5828 5830 5831 5833 5834 5835 5837 5838 5839 5840 5841 5842 5843 5843 5844 5845 5845 5846 5846 5846 5846 5846 5846 5846 5846 5845 5845 5844 5844 5843
5799 5800 5802 5805 5807 5809 5810 5812 5814 5816 5818 5819 5821 5822 5824 5826 5827 5829 5830 5831 5833 5834 5835 5836 5837 5838 5839 5839 5840 5841 5841 5842 5842 5842 5842 5842 5842 5841 5841 5841 5840 5840 5839
5792 5794 5796 5798 5800 5802 5804 5806 5808 5809 5811 5813 5814 5816 5818 5819 5821 5822 5824 5825 5827 5828 5829 5830 5831 5833 5833 5834 5835 5836 5836 5837 5837 5837 5837 5837 5837 5837 5837 5836 5836 5835 5835
5786 5787 5789 5791 5794 5795 5796 5798 5800 5802 5804 5806 5808 5809 5811 5812 5814 5816 5817 5819 5820 5822 5823 5825 5826 5827 5828 5829 5829 5830 5831 5831 5832 5832 5832 5832 5832 5832 5832 5831 5831 5830 5830
5778 5780 5782 5784 5786 5788 5789 5791 5793 5795 5796 5798 5800 5802 5803 5805 5807 5808 5810 5812 5813 5815 5817 5818 5819 5820 5821 5823 5824 5824 5825 5826 5826 5827 5827 5827 5827 5827 5826 5826 5826 5825 5825
5771 5773 5774 5776 5778 5780 5781 5783 5785 5786 5788 5790 5791 5793 5795 5797 5799 5800 5802 5804 5806 5807 5809 5811 5812 5813 5815 5816 5817 5818 5819 5819 5820 5821 5821 5821 5821 5821 5821 5821 5820 5820 5819
5763 5765 5766 5768 5770 5772 5773 5775 5775 5777 5779 5780 5782 5784 5786 5787 5789 5791 5793 5795 5797 5799 5801 5803 5805 5806 5808 5809 5810 5811 5812 5813 5814 5814 5815 5815 5815 5815 5815 5815 5814 5814 5813
5756 5757 5758 5759 5761 5763 5765 5766 5766 5768 5770 5771 5773 5774 5776 5777 5779 5781 5784 5786 5788 5790 5792 5794 5796 5798 5800 5801 5803 5804 5805 5806 5807 5807 5808 5808 5808 5808 5808 5808 5808 5807 5806
5747 5749 5750 5751 5753 5754 5755 5756 5757 5758 5760 5761 5763 5764 5765 5767 5769 5771 5773 5776 5778 5781 5783 5785 5787 5790 5791 5793 5795 5796 5798 5798 5799 5800 5801 5801 5801 5801 5801 5801 5801 5800 5799
5739 5740 5741 5742 5744 5745 5746 5747 5748 5748 5750 5751 5753 5754 5755 5757 5759 5760 5763 5765 5768 5771 5773 5776 5778 5780 5783 5784 5786 5788 5789 5790 5791 5792 5793 5793 5793 5793 5793 5793 5793 5792 5792
5731 5731 5733 5734 5735 5736 5737 5737 5738 5739 5740 5741 5743 5744 5745 5747 5749 5751 5753 5755 5758 5761 5763 5766 5769 5771 5773 5775 5777 5779 5781 5782 5783 5784 5785 5785 5785 5785 5785 5785 5785 5784 5784
5723 5723 5724 5725 5726 5726 5727 5728 5729 5730 5730 5732 5733 5734 5735 5737 5739 5741 5743 5745 5748 5750 5753 5756 5759 5761 5764 5766 5768 5770 5771 5773 5774 5775 5776 5776 5777 5776 5776 5776 5776 5776 5775
5714 5715 5716 5716 5717 5717 5718 5719 5719 5720 5721 5722 5723 5724 5725 5726 5728 5731 5733 5735 5738 5741 5743 5746 5749 5752 5754 5756 5759 5760 5762 5764 5765 5766 5766 5767 5767 5767 5767 5767 5766 5766 5766
5706 5706 5707 5707 5708 5708 5709 5709 5710 5710 5711 5712 5713 5714 5715 5717 5718 5720 5723 5725 5728 5730 5733 5736 5738 5741 5744 5746 5749 5751 5752 5754 5756 5757 5757 5757 5757 5757 5757 5757 5756 5756 5756
5697 5697 5698 5698 5699 5700 5700 5700 5701 5702 5703 5703 5704 5705 5706 5708 5709 5711 5712 5715 5717 5720 5723 5725 5728 5730 5733 5736 5738 5740 5742 5744 5746 5747 5748 5748 5748 5747 5747 5747 5746 5745 5745
5688 5689 5689 5690 5690 5691 5692 5692 5693 5693 5694 5694 5695 5696 5697 5698 5700 5701 5703 5705 5707 5710 5712 5715 5717 5719 5722 5725 5727 5729 5731 5732 5734 5735 5737 5738 5737 5737 5736 5736 5735 5734 5733
5680 5680 5681 5681 5682 5683 5683 5684 5684 5685 5685 5685 5686 5687 5688 5689 5690 5691 5692 5694 5697 5699 5702 5704 5707 5709 5711 5714 5716 5718 5720 5721 5722 5723 5724 5725 5726 5726 5725 5724 5723 5722 5721